www.pogodaiklimat.ru

Погода и климат >> Архив погоды >> Иран >> Sirjan


ПОГОДА в Sirjan

  • Прогноз погоды в Sirjan
  • Монитор погоды в Sirjan
  • Климат города

АРХИВ ПОГОДЫ в Sirjan

Время (UTC), дата Ветер
(напр.,м/с)
 
Видим.   Явления Облачность Т
(С)
Тd
(С)
f
(%)
Тe
(С)
Тes
(С)
Комфортность P
(гПа)
Po
(гПа)
Тmin
(С)
Tmax
(С)
R
(мм)
R24
(мм)
S
(см)
03 9.07 штиль 0 10 км ясно +24.0 -3.2 16 +22 +26 комфорт 996.8 822.9 +20.7
06 9.07 СЗ 5 10 км ясно +32.6 -1.6 11 +29 +38 жарко 996.4 822.9
09 9.07 С 5 10 км ясно +35.2 -2.5 9 +31 +42 жарко 995.0 821.8
12 9.07 С 10 10 км ясно +36.2 -2.8 8 +32 +33 жарко 993.5 820.5
15 9.07 СВ 6 10 км ясно +33.8 -3.6 9 +30 +30 жарко 995.3 820.7 +36.4
18 9.07 С 3 10 км ясно +28.4 -4.6 11 +25 +25 комфорт 995.5 821.8
21 9.07 СВ 5 10 км ясно +25.3 -3.8 14 +23 +23 комфорт 994.8 821.3
00 10.07 СВ 3 10 км ясно +22.6 -6.3 14 +21 +21 комфорт 995.3 821.3
03 10.07 штиль 0 15 км ясно +24.8 -4.7 14 +23 +26 комфорт 997.0 822.6 +21.8
06 10.07 С 8 10 км ясно +33.0 -6.3 8 +29 +32 жарко 996.5 822.6
09 10.07 З 4 10 км ясно +34.8 -4.9 8 +31 +45 жарко 994.5 821.0
12 10.07 СЗ 5 10 км ясно +36.1 -4.5 7 +32 +37 жарко 993.6 819.9
15 10.07 С 6 10 км ясно +34.4 -3.6 9 +30 +30 жарко 993.5 819.9 +36.1
18 10.07 С 3 10 км ясно +28.2 -2.1 14 +25 +25 комфорт 995.2 821.9
21 10.07 СВ 7 10 км ясно +25.9 -1.7 16 +24 +24 комфорт 995.1 821.8
00 11.07 штиль 0 10 км ясно +24.8 -0.2 19 +23 +23 комфорт 995.0 821.8
03 11.07 З 5 10 км ясно +24.1 +2.5 24 +23 +25 комфорт 996.9 822.8 +22.6
06 11.07 СВ 6 8000 м пыльный позёмок ясно +32.8 +3.2 15 +30 +36 жарко 996.2 822.7
09 11.07 С 9 8000 м пыльный позёмок 1/0
[Ac trans]
+35.0 +1.8 12 +32 +34 жарко 994.6 821.5
12 11.07 З 3 10 км 1/1 1200 м
[Cu hum]
+36.0 +0.4 11 +32 +39 жарко 993.0 820.1
15 11.07 С 7 10 км ясно +33.4 +0.4 12 +30 +30 жарко 993.6 819.8 +36.0
18 11.07 С 6 10 км ясно +29.6 +1.1 16 +27 +27 жарко 994.3 821.5
21 11.07 СЗ 4 10 км ясно +26.4 +0.7 19 +25 +25 комфорт 994.5 821.5
00 12.07 СЗ 4 10 км ясно +23.0 +0.8 23 +22 +22 комфорт 994.7 821.0
03 12.07 СВ 3 10 км ясно +22.4 +1.0 24 +22 +24 комфорт 996.5 821.8 +19.4
06 12.07 С 8 10 км ясно +32.0 +1.0 14 +29 +32 жарко 994.0 821.1
09 12.07 С 9 10 км ясно +33.8 -0.9 11 +30 +32 жарко 993.6 820.4
12 12.07 СЗ 7 10 км ясно +34.7 -2.8 9 +31 +33 жарко 993.3 819.0
15 12.07 С 9 10 км ясно +32.6 -3.6 10 +29 +29 жарко 993.4 818.8 +35.0
18 12.07 С 4 10 км ясно +28.0 -4.1 12 +25 +25 комфорт 993.3 820.0
21 12.07 штиль 0 10 км ясно +23.2 -4.0 16 +21 +21 комфорт 994.3 820.0
00 13.07 штиль 0 10 км ясно +21.6 -3.5 18 +21 +21 комфорт 994.0 819.7
03 13.07 штиль 0 10 км ясно +21.4 -1.6 21 +21 +24 комфорт 995.4 820.3 +17.4
06 13.07 СЗ 6 10 км ясно +30.0 +0.4 15 +27 +34 жарко 994.4 820.5
09 13.07 ЮЗ 6 10 км ясно +33.5 -2.5 10 +30 +38 жарко 993.3 819.4
12 13.07 СЗ 8 10 км ясно +35.1 -3.5 8 +31 +33 жарко 991.6 817.5
15 13.07 СЗ 7 10 км ясно +33.1 -4.6 9 +29 +29 жарко 991.8 817.6 +35.6
18 13.07 С 4 10 км ясно +28.0 -4.0 12 +25 +25 комфорт 992.5 818.8
21 13.07 штиль 0 10 км ясно +23.2 -2.4 18 +22 +22 комфорт 993.2 819.0
00 14.07 С 3 10 км ясно +20.6 -3.4 20 +21 +21 комфорт 993.4 819.0
03 14.07 СВ 4 10 км ясно +22.1 -2.6 19 +21 +23 комфорт 994.3 819.7 +19.0
06 14.07 З 3 15 км ясно +31.6 +0.8 14 +29 +42 жарко 993.8 820.3
09 14.07 СЗ 3 10 км ясно +34.4 -4.1 8 +30 +48 жарко 993.2 819.3
12 14.07 З 3 15 км ясно +35.4 -5.4 7 +31 +39 жарко 992.0 817.8
15 14.07 ЮЗ 3 15 км ясно +34.6 -6.8 7 +30 +30 жарко 991.0 817.2 +36.1
18 14.07 СВ 5 10 км ясно +26.7 -6.8 10 +24 +24 комфорт 991.6 818.0
21 14.07 Ю 3 10 км ясно +24.9 -7.3 11 +22 +22 комфорт 991.5 818.3
00 15.07 штиль 0 10 км ясно +20.2 -5.3 17 +20 +20 992.5 818.3
03 15.07 штиль 0 10 км ясно +21.4 -2.2 20 +21 +24 комфорт 993.5 819.2 +19.2
06 15.07 В 2 10 км ясно +31.8 -2.6 11 +30 +46 жарко 992.4 819.3
09 15.07 ЮЗ 4 10 км ясно +36.0 -4.2 8 +32 +46 жарко 990.9 818.2
12 15.07 СВ 2 10 км ясно +36.6 -4.6 7 +32 +41 жарко 991.1 817.3 +15.8
15 15.07 З 5 10 км ясно +35.9 -5.2 7 +32 +32 жарко 990.1 816.6 +37.7
18 15.07 штиль 0 10 км ясно +25.7 -3.6 14 +23 +23 комфорт 990.1 816.7
21 15.07 штиль 0 10 км ясно +26.3 -3.9 13 +24 +24 комфорт 988.4 816.5
00 16.07 ЮВ 3 10 км ясно +26.0 +9.4 35 +26 +26 жарко 988.0 816.9

 

Местоположение метеостанции Sirjan (Иран): широта 29.47 долгота 55.72 высота над уровнем моря 1739 м.

В архиве по умолчанию представлена погода в Sirjan за последнюю неделю. Архивные данные за месяц целиком и за предыдущие месяцы, начиная с января 2011 года, Вы можете получить, выбрав интересующий диапазон дат из раскрывающегося списка и нажав кнопку "Ввод!".


*Определитесь, кто Вы:
робот инопланетянин человек

Внимание! Время в таблицах - всемирное. Для получения местного времени необходимо прибавить поправку, которая в Sirjan равна 3.5 ч.

Смотрите также архив погоды в соседних городах и на ближайших метеорологических станциях:

Погода в Baft (Иран) (87 км)
Погода в Kerman (Иран) (149 км)
Погода в Fasa (Иран) (206 км)
Погода в Kahnuj (Иран) (255 км)
Погода в Bandarabbass (Иран) (258 км)
Погода в Bam (Иран) (263 км)
Погода в Yazd (Иран) (303 км)
Погода в Shiraz (Иран) (309 км)
Погода в Bandar Lengeh (Иран) (333 км)
Погода в Abadeh (Иран) (349 км)

Пояснения к столбцам:

Ветер - указаны скорость ветра в м/с - средняя за 10 мин, порывы в срок и между сроками (в фигурных скобках) и направление, откуда дует ветер: С - северный, СВ - северо-восточный, В - восточный, ЮВ - юго-восточный, Ю - южный, ЮЗ - юго-западный, З - западный, СЗ - северо-западный.
Видимость - горизонтальная дальность видимости в метрах или километрах. При видимости от 1 до 10 км при отсутствии осадков обычно наблюдается дымка, при ухудшении видимости до 1 км и менее - туман. В сухую погоду видимость может ухудшаться дымом, пылью или мглою.
Явления - указаны атмосферные явления, наблюдавшиеся в срок или в последний час перед сроком; фигурными скобками обозначены явления, наблюдавшиеся между сроками (за 1-3 часа до срока); квадратными скобками обозначены град или гололедные отложения с указанием их диаметра в мм.
Облачность - указаны через наклонную черту общая и нижняя облачность в баллах и высота нижней границы облаков в метрах; квадратными скобками обозначены формы облаков: Ci - перистые, Cs - перисто-слоистые, Cc - перисто-кучевые, Ac - высококучевые, As - высокослоистые, Sc - слоисто-кучевые, Ns - слоисто-дождевые, Cu - кучевые, Cb - кучево-дождевые. Подробнее классификацию облаков см. в Атласе облаков (PDF).
T - Температура воздуха - температура, измеренная на высоте 2 м над землей.
Td - Температура точки росы - температура, при понижении до которой содержащийся в воздухе водяной пар достигнет насыщения.
f - Относительная влажность воздуха - влажноcть воздуха, измеренная на высоте 2 м над землей.
Te - Эффективная температура - температура, которую ощущает одетый по сезону человек в тени. Характеристика душности погоды. При расчете учитывается влияние влажности воздуха и скорости ветра на теплоощущения человека.
Tes - Эффективная температура на солнце - температура, которую ощущает человек, с поправкой на солнечный нагрев. Характеристика знойности погоды. Зависит от высоты солнца над горизонтом, облачности и скорости ветра. Ночью, в пасмурную погоду, а также при ветре 12 м/с и более поправка равна нулю.
P - Атмосферное давление - приведенное к уровню моря атмосферное давление.
Po - Атмосферное давление - измеренное на уровне метеостанции атмосферное давление.
Tmin - Минимальная температура - минимум температуры воздуха на высоте 2 м над землей.
Tmax - Максимальная температура - максимум температуры воздуха на высоте 2 м над землей.
R - Количество осадков - Количество выпавших осадков за период времени, мм. При наведении курсора мыши на число - период времени, за который выпало указанное количество осадков.
R24 - Количество осадков - Количество выпавших осадков за 24 часа, мм.
S - Снежный покров - Высота снежного покрова, см. При наведении курсора мыши на число - состояние снежного покрова и степень покрытия местности в баллах.